Flag for U.S.A. Weather past 2 weeks in Wilmington, North Carolina, U.S.A.

Now
57 °F

Scattered clouds.


Feels Like: 57 °F
Forecast: 46 / 68 °F
Wind: 3 mph from Southwest

Location: New Hanover International Airport

Current Time: Dec 28, 2014 at 9:37:24 AM

Latest Report: Dec 28, 2014 at 8:53 AM


Visibility: 10 mi

Pressure: 30.14 "Hg

Humidity: 74%

Dew point: 49 °F

Location of WilmingtonLocation

Historic Weather in Wilmington — Graph

°F

Wilmington temperature yesterday

Maximum temperature yesterday: 64 °F (at 1:53 PM)
Minimum temperature yesterday: 34 °F (at 5:53 AM)
Average temperature yesterday: 48 °F

Past Weeks' High & Low Weather Summary

 TemperatureHumidityPressure
High72 °F (Dec 24, 2:53 PM)100% (Dec 18, 1:53 AM)30.37 "Hg (Dec 18, 1:53 AM)
Low31 °F (Dec 15, 3:53 AM)21% (Dec 13, 1:53 PM)29.74 "Hg (Dec 24, 10:53 PM)
Average48 °F80%30.09 "Hg
* Reported Dec 13 7:53 AM — Dec 28 7:53 AM, Wilmington, Weather by CustomWeather, © 2014

Note: Actual official high and low records may vary slightly from our data, if they occured in-between our weather recording intervals... More about our weather records

Advertising

Wilmington weather history for previous 24 hours

 ConditionsComfort  
Time TempWeatherWind HumidityBarometerVisibility
7:53 AM
Dec 28
53 °FPassing clouds.3 mph86%30.14 "Hg10 mi
6:53 AM51 °FPassing clouds.No wind92%30.12 "Hg10 mi
5:53 AM51 °FPassing clouds.No wind89%30.11 "Hg9 mi
4:53 AM51 °FPassing clouds.No wind89%30.12 "Hg8 mi
3:53 AM50 °FPassing clouds.No wind93%30.13 "Hg10 mi
2:53 AM49 °FPassing clouds.No wind93%30.17 "Hg10 mi
1:53 AM47 °FClear.No wind93%30.17 "Hg10 mi
12:53 AM47 °FFog.No wind93%30.19 "Hg6 mi
11:53 PM
Dec 27
46 °FClear.No wind93%30.21 "Hg8 mi
10:53 PM46 °FFog.No wind93%30.22 "Hg6 mi
9:53 PM48 °FClear.No wind89%30.25 "Hg10 mi
8:53 PM48 °FClear.No wind89%30.25 "Hg10 mi
7:53 PM48 °FClear.No wind86%30.25 "Hg10 mi
6:53 PM51 °FClear.No wind80%30.27 "Hg10 mi
5:53 PM53 °FClear.No wind66%30.26 "Hg10 mi
4:53 PM57 °FSunny.5 mph55%30.24 "Hg10 mi
3:53 PM61 °FSunny.6 mph52%30.24 "Hg10 mi
2:53 PM63 °FSunny.7 mph50%30.24 "Hg10 mi
1:53 PM64 °FSunny.6 mph47%30.25 "Hg10 mi
12:53 PM63 °FSunny.3 mph43%30.27 "Hg10 mi
11:53 AM59 °FSunny.3 mph49%30.31 "Hg10 mi
10:53 AM58 °FSunny.No wind56%30.36 "Hg10 mi
9:53 AM52 °FSunny.No wind72%30.37 "Hg10 mi
Weather by CustomWeather, © 2014

See weather overviewHow to use our weather pages